This is the latest recevied weather packets stored in our database for station/object 4S6DRJ-13. If no packets are shown the sender has not sent any weather packets the latest 10 day(s).
| Time | Temp. | Humidity | Pressure | Rain* | Wind** | Luminosity | Snow |
|---|---|---|---|---|---|---|---|
| 1787711706 | 28.33° C | 82% | 1010.9 hPa | 0 mm | 0.89 m/s, 275° | 356 W/m² | - |
| 1787711645 | 28.33° C | 82% | 1011.1 hPa | 0 mm | 2.68 m/s, 199° | 355 W/m² | - |
| 1787711584 | 28.33° C | 83% | 1010.9 hPa | 0 mm | 0.89 m/s, 224° | 349 W/m² | - |
| 1787711523 | 28.33° C | 83% | 1011.1 hPa | 0 mm | 1.79 m/s, 175° | 391 W/m² | - |
| 1787711462 | 28.33° C | 83% | 1011 hPa | 0 mm | 1.34 m/s, 162° | 380 W/m² | - |
| 1787711401 | 28.33° C | 82% | 1011 hPa | 0 mm | 4.02 m/s, 240° | 362 W/m² | - |
| 1787711340 | 28.33° C | 83% | 1010.9 hPa | 0 mm | 2.24 m/s, 184° | 373 W/m² | - |
| 1787711279 | 28.33° C | 83% | 1011 hPa | 0 mm | 1.79 m/s, 237° | 378 W/m² | - |
| 1787711219 | 28.33° C | 83% | 1010.8 hPa | 0 mm | 1.79 m/s, 220° | 377 W/m² | - |
| 1787711157 | 28.33° C | 83% | 1011 hPa | 0 mm | 1.34 m/s, 269° | 361 W/m² | - |
| 1787711097 | 28.33° C | 84% | 1010.8 hPa | 0 mm | 1.34 m/s, 220° | 395 W/m² | - |
| 1787711035 | 28.33° C | 84% | 1010.9 hPa | 0 mm | 0.45 m/s, 271° | 404 W/m² | - |
| 1787710974 | 28.33° C | 84% | 1010.8 hPa | 0 mm | 1.79 m/s, 197° | 370 W/m² | - |
| 1787710913 | 28.33° C | 84% | 1010.7 hPa | 0 mm | 1.34 m/s, 224° | 373 W/m² | - |
| 1787710852 | 28.33° C | 84% | 1010.7 hPa | 0 mm | 1.34 m/s, 210° | 362 W/m² | - |
| 1787710792 | 28.33° C | 84% | 1010.8 hPa | 0 mm | 1.34 m/s, 200° | 353 W/m² | - |
| 1787710730 | 28.33° C | 84% | 1010.8 hPa | 0 mm | 2.24 m/s, 213° | 338 W/m² | - |
| 1787710669 | 28.33° C | 84% | 1010.7 hPa | 0 mm | 0.45 m/s, 193° | 325 W/m² | - |
| 1787710608 | 28.33° C | 84% | 1010.7 hPa | 0 mm | 0.89 m/s, 211° | 312 W/m² | - |
| 1787710547 | 28.33° C | 85% | 1010.8 hPa | 0 mm | 0 m/s | 308 W/m² | - |
| 1787710486 | 28.33° C | 84% | 1010.9 hPa | 0 mm | 1.34 m/s, 184° | 295 W/m² | - |
| 1787710425 | 28.33° C | 84% | 1010.8 hPa | 0 mm | 1.79 m/s, 253° | 287 W/m² | - |
| 1787710364 | 28.33° C | 85% | 1010.8 hPa | 0 mm | 0.89 m/s, 228° | 275 W/m² | - |
| 1787710303 | 28.33° C | 85% | 1010.6 hPa | 0 mm | 1.79 m/s, 163° | 300 W/m² | - |
| 1787710242 | 28.33° C | 85% | 1010.7 hPa | 0 mm | 0.89 m/s, 222° | 303 W/m² | - |
* Rain latest hour (hover to see other rain measurements)
** Current wind speed in m/s (hover to see current wind gust speed)